Regional Weather Roundup
Issued by NWS

Home | Current Version | Previous Version | Text Only | Print | Product List | Glossary Off
Versions: 1 2 3 4 5 6 7 8 9 10 11 12 13 14 15 16 17 18 19 20 21 22 23 24 25 26 27 28 29 30 31 32 33 34 35 36 37 38 39 40 41 42 43 44 45 46 47 48 49 50

000
ASUS43 KLOT 241403
RWRIL

ILLINOIS REGIONAL WEATHER ROUNDUP
NATIONAL WEATHER SERVICE CHICAGO/ROMEOVILLE IL
900 AM CDT SAT SEP 24 2016

NOTE: "FAIR" INDICATES FEW OR NO CLOUDS BELOW 12,000 FEET WITH NO
SIGNIFICANT WEATHER AND/OR OBSTRUCTIONS TO VISIBILITY.

* THESE STATIONS ARE NOT UNDER NWS QUALITY CONTROL. THEY ALSO MAY NOT
  REPORT WEATHER SUCH AS PRECIPITATION OR FOG.

ILZ001-002-007-009-015-016-024-241500-
NORTHWEST ILLINOIS

CITY           SKY/WX    TMP DP  RH WIND       PRES   REMARKS
MOLINE         CLOUDY    68  65  90 E10       30.14R FOG
STERLING*      CLOUDY    67  65  93 E10       30.17S FOG
$$

ILZ003-004-008-010-011-017-018-241500-
NORTH CENTRAL ILLINOIS

CITY           SKY/WX    TMP DP  RH WIND       PRES   REMARKS
ROCKFORD       CLOUDY    67  61  81 E8        30.20R
FREEPORT*      CLOUDY    64  61  89 E9        30.20R
ROCHELLE*      CLOUDY    66  64  91 E8        30.18S
$$

ILZ005-006-012>014-019>023-241500-
NORTHEAST ILLINOIS

CITY           SKY/WX    TMP DP  RH WIND       PRES   REMARKS
CHICAGO-OHARE  CLOUDY    67  61  81 E9        30.19S
CHICAGO-MIDWAY CLOUDY    68  61  78 E12       30.19R
AURORA         CLOUDY    69  64  84 E8        30.18S
LANSING*       CLOUDY    66  64  93 E7        30.20R
WAUKEGAN       CLOUDY    65  60  84 E10       30.21R
DUPAGE AIRPORT CLOUDY    67  61  81 E6        30.19R
KANKAKEE*      CLOUDY    68  66  93 E7        30.18R FOG
WHEELING       CLOUDY    66  61  84 E7        30.21S
NORTHERLY ISL    N/A     66  61  84 E12         N/A
$$

LMZ740>746-241500-
SOUTHERN LAKE MICHIGAN

STATION/POSITION SKY/WX   TEMP    WIND        PRES    VSBY  WAVE
                          AIR SEA DIR/SP/G                  HT/PER
                          (F)     (DEG/KT/KT) (MB)    (MI)  (FT/S)
SOUTHERN BUOY              63 72   90/ 14/ 17 1023.1          3/ 5
WILMETTE HARBOR            65 64   90/  8/ 14   N/A           3/ 6
HARRISON CRIB              67      90/ 11/ 13   N/A
BURNHAM HARBOR             66      70/  9/ 11   N/A
CALUMET HARBOR             66      60/  8/ 10 1021.8R
BURNS HARBOR               63      70/  8/ 10 1022.7R
MICHIGAN CITY              62      50/  6/  7   N/A
MICHIGAN CITY 6N           63 70   80/ 12/ 14   N/A           2/ 5
ST. JOSEPH                 61 70   80/ 10/ 14 1023.1R         2/ 5
$$

ILZ025>027-034>036-040-047-049-050-058-095>099-241500-
WEST-CENTRAL ILLINOIS

CITY           SKY/WX    TMP DP  RH WIND       PRES   REMARKS
QUINCY         SUNNY     73  68  84 SE8       30.11S
GALESBURG*     CLOUDY    67  66  97 E5        30.14S FOG
MACOMB*        LGT RAIN  66  66 100 E6        30.16R VSB 1/4
$$

ILZ028>032-037-038-041>044-048-051>054-059>061-241500-
CENTRAL ILLINOIS

CITY           SKY/WX    TMP DP  RH WIND       PRES   REMARKS
BLOOMINGTON    CLOUDY    69  67  93 E8        30.17R FOG
DECATUR        SUNNY     71  67  87 E3        30.15R FOG
PEORIA         CLOUDY    70  68  93 E8        30.15R FOG
SPRINGFIELD    SUNNY     72  68  87 CALM      30.14R FOG
TAYLORVILLE    NOT AVBL
$$

ILZ033-039-045-046-055>057-062-063-241500-
EAST-CENTRAL ILLINOIS

CITY           SKY/WX    TMP DP  RH WIND       PRES   REMARKS
CHAMPAIGN      CLOUDY    69  67  93 NE8       30.16R FOG
MATTOON        SUNNY     73  67  81 CALM      30.14S
$$

ILZ079-100>102-241500-
SOUTHWEST ILLINOIS

CITY           SKY/WX    TMP DP  RH WIND       PRES   REMARKS
ALTON          SUNNY     72  68  88 CALM      30.12S
BELLEVILLE     SUNNY     73  72  99 E2        30.11S
CAHOKIA*       SUNNY     75  69  81 CALM      30.11S
SPARTA*        SUNNY     73  69  86 CALM      30.13S
$$

ILZ064>066-069>071-074>076-080>082-084>086-088>090-092>094-241500-
SOUTH-CENTRAL ILLINOIS

CITY           SKY/WX    TMP DP  RH WIND       PRES   REMARKS
CARBONDALE     SUNNY     74  71  91 CALM      30.12S
MARION         SUNNY     77  70  78 SE5       30.14R
MT. VERNON     SUNNY     72  64  78 CALM      30.14S
CENTRALIA*     SUNNY     74  71  91 CALM      30.13S
SALEM*         SUNNY     74  69  83 CALM      30.14S
METROPOLIS*    SUNNY     76  70  83 CALM      30.13S
$$

ILZ067-068-072-073-078-083-087-091-241500-
SOUTHEAST ILLINOIS

CITY           SKY/WX    TMP DP  RH WIND       PRES   REMARKS
LAWRENCEVILLE  SUNNY     73  68  84 CALM      30.14S HAZE
FLORA*         SUNNY     76  70  80 CALM      30.14F
HARRISBURG*    SUNNY     73  70  91 CALM      30.13S
ROBINSON*      SUNNY     69  69 100 CALM      30.15S FOG
$$

ABBREVIATIONS USED IN REMARKS
   TC - TEMPERATURE IN CELSIUS
  WCI - WIND CHILL INDEX
   HX - HEAT INDEX
  VSB - VISIBILITY
$$





USA.gov is the U.S. government's official web portal to all federal, state and local government web resources and services.